Volver al catálogo

STARLINK-31317

ActivoComunicacionesVLEO
NORAD 58931·PAYLOAD·🇺🇸 United States

Lanzado Feb 10, 2024 desde Vandenberg Space Force Base

Loading…

Próximos Pases (próximas 24 horas)

TLE

ActualizadoSource: CelesTrak SupGP

Época: Sep 14, 2026, 22:03 UTC

1 58931C 24027A   26257.91923611 -.00056830  00000+0 -16788-2 0  2577
2 58931  53.1563 147.6102 0001188  83.7026 269.2080 15.34422770    19

Sigue STARLINK-31317 en tiempo real con AllMySat

Download on the App Store